Weather History for Glens Falls, NY

Change the Weather History Date:

Friday, February 15, 2013

  Actual Average Record
Temperature  
Mean Temperature 34 °F 21 °F  
Max Temperature 46 °F 33 °F 54 °F (2006)
Min Temperature 22 °F 10 °F -20 °F (1987)
Degree Days  
Heating Degree Days 31 44  
Month to date heating degree days 672 680  
Since 1 July heating degree days 4617 5076  
Cooling Degree Days 0 0  
Month to date cooling degree days 0 0  
Year to date cooling degree days 0 0  
Moisture  
Dew Point 23 °F    
Average Humidity 68    
Maximum Humidity 100    
Minimum Humidity 36    
Precipitation  
Precipitation 0.01 in 0.07 in 1.27 in (1990)
Month to date precipitation 0.20 1.12  
Year to date precipitation 1.48 3.98  
Sea Level Pressure  
Sea Level Pressure 29.91 in    
Wind  
Wind Speed 6 mph (WSW)    
Max Wind Speed 18 mph    
Max Gust Speed 26 mph    
Visibility 5 miles    
Events Fog , Snow    
T = Trace of Precipitation, MM = Missing Value Source: NWS Daily Summary

Daily Weather History Graph

Daily Weather History Graph

Search for Another Location

Airport:

Trip Planner

Search our weather history database for the weather conditions in past years. The results will help you decide how hot, cold, wet, or windy it might be!

Date:

Astronomy

Feb. 15, 2013 Rise Set
Actual Time 6:52 AM EST 5:25 PM EST
Civil Twilight 6:22 AM EST 5:54 PM EST
Nautical Twilight 5:49 AM EST 6:28 PM EST
Astronomical Twilight 5:16 AM EST 7:01 PM EST
Moon 9:15 AM EST (2/15) 11:36 PM EST (2/15)
Length of Visible Light 11h 31m
Length of Day
10h 33m
Waxing Crescent, 30% of the Moon is Illuminated
Feb 15
Waxing Crescent
Feb 17
First Quarter
Feb 25
Full
Mar 4
Last Quarter
Mar 11
New

Hourly Weather History & Observations

Time (EST) Temp. Windchill Dew Point Humidity Pressure Visibility Wind Dir Wind Speed Gust Speed Precip Events Conditions
12:18 AM 28.4 °F - 24.8 °F 86% 29.92 in 2.5 mi Calm Calm - 0.00 in Snow Light Snow
12:26 AM 28.4 °F - 24.8 °F 86% 29.92 in 1.2 mi Calm Calm - 0.00 in Snow Light Snow
12:35 AM 28.4 °F - 24.8 °F 86% 29.92 in 1.5 mi Calm Calm - 0.00 in Snow Light Snow
12:53 AM 28.9 °F 25.2 °F 26.1 °F 89% 29.94 in 1.2 mi SSE 3.5 mph - 0.01 in Snow Light Snow
1:09 AM 28.4 °F - 26.6 °F 93% 29.90 in 3.0 mi Calm Calm - 0.00 in Snow Light Snow
1:53 AM 28.9 °F - 27.0 °F 92% 29.93 in 4.0 mi Calm Calm - 0.00 in   Overcast
2:53 AM 30.0 °F - 27.0 °F 88% 29.92 in 5.0 mi Calm Calm - N/A   Overcast
3:02 AM 30.2 °F - 26.6 °F 86% 29.89 in 2.5 mi Calm Calm - 0.00 in Snow Light Snow
3:33 AM 28.4 °F - 26.6 °F 93% 29.88 in 3.0 mi Calm Calm - 0.00 in Snow Light Snow
3:48 AM 28.4 °F - 26.6 °F 93% 29.87 in 4.0 mi Calm Calm - 0.00 in   Mostly Cloudy
3:53 AM 27.0 °F - 26.1 °F 96% 29.90 in 3.0 mi Calm Calm - 0.00 in   Mostly Cloudy
3:55 AM 26.6 °F - 26.6 °F 100% 29.87 in 1.5 mi Calm Calm - N/A   Mostly Cloudy
4:05 AM 24.8 °F - 24.8 °F 100% 29.87 in 0.5 mi Calm Calm - N/A Fog Light Freezing Fog
4:13 AM 24.8 °F - 24.8 °F 100% 29.87 in 0.5 mi Calm Calm - N/A Fog Light Freezing Fog
4:26 AM 23.0 °F - 21.2 °F 93% 29.87 in 0.2 mi Calm Calm - N/A Fog Light Freezing Fog
4:43 AM 24.8 °F - 23.0 °F 93% 29.88 in 1.0 mi Calm Calm - N/A   Overcast
4:53 AM 25.0 °F - 24.1 °F 96% 29.90 in 2.0 mi Calm Calm - N/A   Overcast
5:13 AM 26.6 °F - 24.8 °F 93% 29.87 in 3.0 mi Calm Calm - 0.00 in Snow Light Snow
5:23 AM 24.8 °F - 23.0 °F 93% 29.87 in 2.5 mi Calm Calm - 0.00 in   Mostly Cloudy
5:49 AM 24.8 °F - 21.2 °F 86% 29.87 in 3.0 mi Calm Calm - 0.00 in   Mostly Cloudy
5:53 AM 24.1 °F - 21.9 °F 91% 29.90 in 3.0 mi Calm Calm - 0.00 in   Mostly Cloudy
6:08 AM 24.8 °F - 21.2 °F 86% 29.87 in 2.5 mi Calm Calm - N/A   Mostly Cloudy
6:16 AM 24.8 °F - 21.2 °F 86% 29.87 in 3.0 mi Calm Calm - N/A   Mostly Cloudy
6:32 AM 24.8 °F 20.5 °F 21.2 °F 86% 29.87 in 2.0 mi North 3.5 mph - N/A   Overcast
6:48 AM 24.8 °F - 23.0 °F 93% 29.87 in 3.0 mi Calm Calm - N/A   Overcast
6:53 AM 25.0 °F - 24.1 °F 96% 29.90 in 2.5 mi Calm Calm - N/A   Overcast
7:53 AM 23.0 °F - 21.9 °F 96% 29.91 in 2.5 mi Calm Calm - N/A   Clear
8:18 AM 24.8 °F 19.1 °F 24.8 °F 100% 29.89 in 3.0 mi South 4.6 mph - N/A   Clear
8:53 AM 35.1 °F 27.9 °F 26.1 °F 70% 29.92 in 7.0 mi SSW 9.2 mph - N/A   Clear
9:53 AM 37.9 °F 30.5 °F 27.0 °F 65% 29.91 in 8.0 mi South 11.5 mph - N/A   Clear
10:53 AM 43.0 °F 36.0 °F 27.0 °F 53% 29.92 in 10.0 mi SSW 13.8 mph 19.6 mph N/A   Overcast
11:53 AM 45.0 °F 38.5 °F 24.1 °F 44% 29.91 in 10.0 mi WSW 13.8 mph 21.9 mph N/A   Scattered Clouds
12:53 PM 45.0 °F 37.6 °F 25.0 °F 46% 29.91 in 10.0 mi WNW 17.3 mph 26.5 mph N/A   Scattered Clouds
1:53 PM 43.0 °F 36.4 °F 23.0 °F 45% 29.92 in 10.0 mi West 12.7 mph 21.9 mph N/A   Mostly Cloudy
2:53 PM 43.0 °F 36.0 °F 19.9 °F 40% 29.94 in 10.0 mi West 13.8 mph 19.6 mph N/A   Mostly Cloudy
3:53 PM 42.1 °F 35.7 °F 18.0 °F 38% 29.94 in 10.0 mi West 11.5 mph - N/A   Partly Cloudy
4:53 PM 42.1 °F 37.7 °F 19.0 °F 40% 29.96 in 10.0 mi WSW 6.9 mph 16.1 mph N/A   Partly Cloudy
5:53 PM 39.9 °F 35.8 °F 18.0 °F 41% 29.96 in 10.0 mi West 5.8 mph - N/A   Scattered Clouds
6:53 PM 35.1 °F 30.1 °F 19.9 °F 54% 29.97 in 10.0 mi WNW 5.8 mph - N/A   Clear
7:53 PM 35.1 °F 30.1 °F 19.9 °F 54% 29.97 in 10.0 mi NW 5.8 mph - N/A   Overcast
8:53 PM 35.1 °F 32.2 °F 21.0 °F 57% 29.97 in 10.0 mi North 3.5 mph - N/A   Partly Cloudy
9:53 PM 35.1 °F 29.3 °F 19.9 °F 54% 29.98 in 10.0 mi West 6.9 mph - N/A   Overcast
10:53 PM 35.1 °F - 19.0 °F 52% 29.99 in 10.0 mi Calm Calm - N/A   Overcast
11:53 PM 34.0 °F 31.0 °F 21.0 °F 59% 30.00 in 10.0 mi SSE 3.5 mph - N/A   Overcast